Regional Weather Roundup
Issued by NWS

Home | Current Version | Previous Version | Text Only | Print | Product List | Glossary Off
Versions: 1 2 3 4 5 6 7 8 9 10 11 12 13 14 15 16 17 18 19 20 21 22 23 24 25 26 27 28 29 30 31 32 33 34 35 36 37 38 39 40 41 42 43 44 45 46 47 48 49 50

000
ASUS43 KFSD 040402
RWRSD

WEATHER ROUNDUP FOR SOUTH DAKOTA
NATIONAL WEATHER SERVICE SIOUX FALLS SD
1000 PM CST SAT DEC 03 2016

NOTE: "FAIR" INDICATES FEW OR NO CLOUDS BELOW 12,000 FEET WITH NO
SIGNIFICANT WEATHER AND/OR OBSTRUCTIONS TO VISIBILITY.


SDZ001>005-009-010-012>017-040500-
NORTHWEST AND NORTH CENTRAL SOUTH DAKOTA

CITY           SKY/WX    TMP DP  RH WIND       PRES   REMARKS
BUFFALO          N/A     30  27  88 W12       29.77F WCI  20
FAITH            N/A     34  28  79 W17       29.85S WCI  23
MOBRIDGE       CLOUDY    30  22  72 SE7       29.83S WCI  23
$$

SDZ012>016-024>037-041>051-057-063-072>074-040500-
SOUTHWEST AND SOUTH CENTRAL SOUTH DAKOTA

CITY           SKY/WX    TMP DP  RH WIND       PRES   REMARKS
RAPID CTY ARPT CLOUDY    32  22  66 W12       29.91S WCI  23
PIERRE         CLEAR     28  21  75 SW7       29.88F WCI  21
CUSTER         CLEAR     25  18  74 W13       29.88F WCI  14
ELLSWORTH AFB  MOCLDY    35  25  67 W13       29.89S WCI  26
PHILIP         CLOUDY    32  24  72 W5        29.90F WCI  27
PINE RIDGE     PTCLDY    25  18  74 CALM      29.95S
SPEARFISH      FAIR      36  23  60 W14G24    29.90S
WINNER         FAIR      30  22  72 SW8       29.92F WCI  22
$$

SDZ004>011-016>023-039-040-040500-
NORTHEAST SOUTH DAKOTA

CITY           SKY/WX    TMP DP  RH WIND       PRES   REMARKS
ABERDEEN       CLOUDY    34  31  88 S16       29.90F WCI  24
WATERTOWN      CLOUDY    33  32  96 S21G31    29.94F WCI  21
SISSETON         N/A     35  32  88 S15       29.94F WCI  25
$$

SDZ017-020-022-023-036>040-048>070-040500-
SOUTHEAST SOUTH DAKOTA

CITY           SKY/WX    TMP DP  RH WIND       PRES   REMARKS
SIOUX FALLS    CLOUDY    34  33  96 S16       30.02F FOG     WCI  24
HURON          CLOUDY    34  32  92 S13       29.92F WCI  25
CHAMBERLAIN    CLEAR     29  26  87 CALM      29.92S
MITCHELL       MOCLDY    36  33  89 S16       29.95F
YANKTON        CLOUDY    36  30  80 S12       30.02F
$$

ABBREVIATIONS USED IN REMARKS
   TC - TEMPERATURE IN CELSIUS
  WCI - WIND CHILL INDEX
   HX - HEAT INDEX
  VSB - VISIBILITY




USA.gov is the U.S. government's official web portal to all federal, state and local government web resources and services.